Overview Statistics Trail Chart Weather Telemetry Raw packets
 

This is the latest recevied weather packets stored in our database for station/object IU5GBO-13. If no packets are shown the sender has not sent any weather packets the latest 10 day(s).

<< 52 53 54 55 56 57 58 >>
Time Temp. Humidity Pressure Rain* Wind** Luminosity Snow
1777252652 9.44° C 69% 1020.3 hPa - - - -
1777252051 10° C 68% 1020.4 hPa - - - -
1777251452 10.56° C 67% 1020.4 hPa - - - -
1777250851 11.11° C 66% 1020.5 hPa - - - -
1777250252 10.56° C 68% 1020.5 hPa - - - -
1777249652 10° C 69% 1020.5 hPa - - - -
1777249052 10° C 70% 1020.7 hPa - - - -
1777248451 10.56° C 69% 1020.7 hPa - - - -
1777247852 10.56° C 68% 1020.7 hPa - - - -
1777247252 10.56° C 69% 1020.7 hPa - - - -
1777246651 11.11° C 67% 1020.8 hPa - - - -
1777246052 11.11° C 66% 1020.9 hPa - - - -
1777245452 11.11° C 67% 1020.8 hPa - - - -
1777244852 11.11° C 67% 1020.7 hPa - - - -
1777244252 11.67° C 67% 1020.9 hPa - - - -
1777243651 11.67° C 68% 1020.8 hPa - - - -
1777243051 12.22° C 66% 1020.6 hPa - - - -
1777242451 12.22° C 66% 1020.7 hPa - - - -
1777241852 12.78° C 65% 1020.8 hPa - - - -
1777241252 12.78° C 65% 1020.7 hPa - - - -
1777240652 12.78° C 64% 1020.7 hPa - - - -
1777240051 13.33° C 63% 1020.8 hPa - - - -
1777239452 13.33° C 62% 1020.8 hPa - - - -
1777238851 13.89° C 62% 1020.9 hPa - - - -
1777238252 13.89° C 63% 1020.7 hPa - - - -

* Rain since midnight (hover to see other rain measurements)
** Current wind speed in m/s (hover to see current wind gust speed)